Location: Dvur Kralove nad Labem
(50.4330°N, 15.8170°E)
Time: 03:58:24
(UTC+01:00)

ISS - Pass Details

Date: 21 February 2020
Orbit: 415 x 423 km, 51.6° (Epoch: 27 February)

Event Time Altitude Azimuth Distance (km) Brightness Sun altitude
Rises 05:54:12 0° 193° (SSW) 2,354 0.0 -10.8°
Reaches altitude 10° 05:57:19 10° 161° (SSE) 1,498 -0.6 -10.3°
Maximum altitude 05:58:42 12° 136° (SE) 1,380 -0.4 -10.1°
Drops below altitude 10° 06:00:05 10° 112° (ESE) 1,504 0.4 -9.9°
Sets 06:03:14 0° 80° (E) 2,375 1.8 -9.4°
